Regional Weather Roundup
Issued by NWS

Home | Current Version | Previous Version | Text Only | Print | Product List | Glossary Off
Versions: 1 2 3 4 5 6 7 8 9 10 11 12 13 14 15 16 17 18 19 20 21 22 23 24 25 26 27 28 29 30 31 32 33 34 35 36 37 38 39 40 41 42 43 44 45 46 47 48 49 50

000
ASUS45 KPSR 282310
RWRAZ

ARIZONA REGIONAL HOURLY WEATHER ROUNDUP
NATIONAL WEATHER SERVICE PHOENIX AZ
400 PM MST WED JAN 28 2015

NOTE: FAIR INDICATES FEW OR NO CLOUDS BELOW 12,000 FEET WITH NO
SIGNIFICANT WEATHER AND/OR OBSTRUCTIONS TO VISIBILITY.

AZZ001>003-036-290000-
NORTHWEST ARIZONA

CITY           SKY/WX    TMP DP  RH WIND       PRES   REMARKS
BULLHEAD CITY  PTSUNNY   68  48  49 N17G23    30.12S
KINGMAN        MOSUNNY   60  42  51 N7        30.17S
$$

AZZ004>008-015-016-018-290000-
NORTH CENTRAL ARIZONA

CITY           SKY/WX    TMP DP  RH WIND       PRES   REMARKS
GRAND CANYON   MOSUNNY   52  22  30 N6        30.24S
PRESCOTT       PTSUNNY   60  28  29 N6        30.18S
FLAGSTAFF      MOSUNNY   53  29  39 E9        30.23R
PAYSON         PTSUNNY   61  36  39 VRB6      30.20S
$$

AZZ009>014-017-290000-
NORTHEAST ARIZONA

CITY           SKY/WX    TMP DP  RH WIND       PRES   REMARKS
WINSLOW        SUNNY     59  31  34 N9        30.19F
SAINT JOHNS    SUNNY     60  26  27 NW7G16    30.18S
WINDOW ROCK    SUNNY     57  19  22 N5        30.22S
SHOW LOW       MOSUNNY   57  25  28 CALM      30.23S
$$

AZZ023-290000-
GREATER PHOENIX AREA

CITY           SKY/WX    TMP DP  RH WIND       PRES   REMARKS
PHOENIX        PTSUNNY   74  47  38 W6        30.05S
BUCKEYE          N/A     72  54  53 W5        30.08F
GLENDALE       PTSUNNY   73  46  38 VRB6      30.07S
LUKE AFB       NOT AVBL
DEER VALLEY    MOSUNNY   72  44  36 W7        30.06S
SCOTTSDALE     MOSUNNY   74  45  35 SW5       30.08R
MESA-FALCON    PTSUNNY   72  45  37 W9        30.06S
MESA-GATEWAY   PTSUNNY   72  48  43 W6        30.08S
CHANDLER       PTSUNNY   73  48  40 VRB6      30.06S
$$

AZZ027-028-290000-
SOUTHWEST MARICOPA COUNTY AND PINAL COUNTY

CITY           SKY/WX    TMP DP  RH WIND       PRES   REMARKS
CASA GRANDE    CLOUDY    72  48  43 NW7       30.07S
GILA BEND      MOCLDY    72  50  47 N6        30.07S
$$

AZZ503-504-507>509-290000-
SOUTHEAST ARIZONA

CITY           SKY/WX    TMP DP  RH WIND       PRES   REMARKS
TUCSON         SUNNY     76  40  27 N5        30.09S
DAVIS-MONTHAN  SUNNY     73  41  31 VRB3      30.07S
RYAN FIELD       N/A     73  45  35 W7        30.09R
NOGALES        SUNNY     74  35  24 W8        30.10F
SIERRA VISTA   PTSUNNY   70  37  30 CALM      30.14S
DOUGLAS        SUNNY     73  30  20 SE8       30.12F
SAFFORD        SUNNY     72  36  26 W3        30.08S
$$

AZZ020-021-025-026-031-290000-
SOUTHWEST ARIZONA

CITY           SKY/WX    TMP DP  RH WIND       PRES   REMARKS
YUMA           CLOUDY    72  51  47 N9        30.07F
$$

CAZ031-033-041-043-047-048-061-290000-
SOUTHERN CALIFORNIA

CITY           SKY/WX    TMP DP  RH WIND       PRES   REMARKS
DOWNTOWN L.A.  CLOUDY    72  49  44 VRB3      30.07R
L.A. AIRPORT   CLOUDY    63  53  70 W13       30.08R
SAN DIEGO      CLOUDY    68  53  58 NW5       30.07S
BURBANK        CLOUDY    72  40  31 S5        30.08R
ONTARIO        CLOUDY    73  44  35 N7        30.07R
RIVERSIDE      CLOUDY    71  42  35 N10G18    30.08S
PALM SPRINGS   CLOUDY    73  42  32 E3        30.12R
EL CENTRO NAS  CLOUDY    71  50  47 N8        30.09F
IMPERIAL       CLOUDY    71  50  47 N7        30.08F
BLYTHE         CLOUDY    71  49  45 N7        30.10S
NEEDLES        PTSUNNY   70  47  43 N12       30.12S
$$

NVZ020-UTZ003-290000-
SOUTHERN NEVADA-UTAH

CITY           SKY/WX    TMP DP  RH WIND       PRES   REMARKS
LAS VEGAS      PTSUNNY   62  44  51 S5        30.15S
SALT LAKE CITY CLOUDY    48  37  65 N12       30.30R
$$

NMZ009-TXZ055-290000-
NEW MEXICO-WEST TEXAS

CITY           SKY/WX    TMP DP  RH WIND       PRES   REMARKS
ALBUQUERQUE    PTSUNNY   62  27  26 NW14      30.16S
EL PASO        MOSUNNY   71  38  29 S5        30.10F
$$


........................KEY........................
SKY/WX - SKY CONDITION/WEATHER
TMP    - TEMPERATURE IN FAHRENHEIT
DP     - DEW POINT IN FAHRENHEIT
RH     - RELATIVE HUMIDITY IN PERCENT
WIND   - DIRECTION AND SPEED IN MILES PER HOUR (MPH)
VRB    - VARIABLE WIND DIRECTION
PRES   - MEAN SEA LEVEL PRESSURE IN INCHES OF MERCURY
         F - FALLING PRESSURE   R - RISING PRESSURE
         S - STEADY PRESSURE
VSB    - VISIBILITY IN MILES
HX     - HEAT INDEX IN FAHRENHEIT
WCI    - WIND CHILL INDEX IN FAHRENHEIT
TC     - TEMPERATURE IN CELSIUS WHICH IS ALSO KNOWN AS
         TEMPERATURE IN CENTIGRADE
AFB    - AIR FORCE BASE
         LUKE AFB IS LUKE AIR FORCE BASE
         DAVIS-MONTHAN IS DAVIS-MONTHAN AIR FORCE BASE
NAS    - NAVAL AIR STATION
         EL CENTRO NAS IS EL CENTRO NAVAL AIR STATION
N/A    - NOT AVAILABLE



USA.gov is the U.S. government's official web portal to all federal, state and local government web resources and services.